Weather History for Big Bear City, CA

Change the Weather History Date:

Monday, August 4, 2014

  Actual Average (KBUO) Record (KBUO)
Temperature  
Mean Temperature 57 °F -  
Max Temperature 68 °F 92 °F 105 °F (1998)
Min Temperature 46 °F 61 °F 55 °F (1996)
Degree Days  
Heating Degree Days 8    
Growing Degree Days 7 (Base 50)    
Moisture  
Dew Point 44 °F    
Average Humidity 69    
Maximum Humidity 100    
Minimum Humidity 32    
Precipitation  
Precipitation 0.00 in - - ()
Sea Level Pressure  
Sea Level Pressure 30.25 in    
Wind  
Wind Speed 3 mph (WSW)    
Max Wind Speed 15 mph    
Max Gust Speed 20 mph    
Visibility 9 miles    
Events Fog    
Averages and records for this station are not official NWS values.
T = Trace of Precipitation, MM = Missing Value Source: NWS Daily Summary

Daily Weather History Graph

Daily Weather History Graph

Search for Another Location

Airport:

Trip Planner

Search our weather history database for the weather conditions in past years. The results will help you decide how hot, cold, wet, or windy it might be!

Date:

Astronomy

Aug. 04, 2014 Rise Set
Actual Time 6:00 AM PDT 7:45 PM PDT
Civil Twilight 5:33 AM PDT 8:13 PM PDT
Nautical Twilight 5:00 AM PDT 8:45 PM PDT
Astronomical Twilight 4:25 AM PDT 9:20 PM PDT
Moon 2:03 PM PDT (8/4) 12:08 AM PDT (8/4)
Length of Visible Light 14h 39m
Length of Day
13h 45m
First Quarter, 58% of the Moon is Illuminated
Aug 4
First Quarter
Aug 10
Full
Aug 17
Last Quarter
Aug 25
New
Sep 2
First Quarter

Hourly Weather History & Observations

Time (PDT) Temp. Dew Point Humidity Pressure Visibility Wind Dir Wind Speed Gust Speed Precip Events Conditions
12:15 AM 51.8 °F 50.0 °F 94% 30.23 in 10.0 mi Calm Calm - N/A   Mostly Cloudy
12:35 AM 50.0 °F 50.0 °F 100% 30.23 in 10.0 mi Calm Calm - N/A   Scattered Clouds
12:55 AM 50.0 °F 48.2 °F 94% 30.23 in 7.0 mi Calm Calm - N/A   Clear
1:15 AM 50.0 °F 48.2 °F 94% 30.22 in 7.0 mi Calm Calm - N/A   Clear
1:35 AM 50.0 °F 50.0 °F 100% 30.22 in 7.0 mi Calm Calm - N/A   Clear
1:55 AM 50.0 °F 48.2 °F 94% 30.22 in 7.0 mi Calm Calm - N/A   Scattered Clouds
2:15 AM 50.0 °F 48.2 °F 94% 30.22 in 1.8 mi Calm Calm - N/A   Overcast
2:35 AM 48.2 °F 48.2 °F 100% 30.22 in 0.2 mi Calm Calm - N/A Fog Fog
3:15 AM 46.4 °F 46.4 °F 100% 30.22 in 7.0 mi Calm Calm - N/A   Mostly Cloudy
3:35 AM 46.4 °F 46.4 °F 100% 30.22 in 7.0 mi Calm Calm - N/A   Scattered Clouds
3:55 AM 46.4 °F 46.4 °F 100% 30.22 in 7.0 mi Calm Calm - N/A   Clear
4:15 AM 48.2 °F 46.4 °F 93% 30.22 in 7.0 mi Calm Calm - N/A   Clear
4:35 AM 46.4 °F 46.4 °F 100% 30.22 in 7.0 mi Calm Calm - N/A   Clear
4:55 AM 46.4 °F 46.4 °F 100% 30.22 in 7.0 mi Calm Calm - N/A   Scattered Clouds
5:15 AM 48.2 °F 46.4 °F 93% 30.22 in 7.0 mi Calm Calm - N/A   Overcast
5:35 AM 48.2 °F 48.2 °F 100% 30.23 in 7.0 mi Calm Calm - N/A   Overcast
5:55 AM 48.2 °F 48.2 °F 100% 30.23 in 7.0 mi Calm Calm - N/A   Overcast
6:15 AM 50.0 °F 48.2 °F 94% 30.23 in 7.0 mi Calm Calm - N/A   Mostly Cloudy
6:35 AM 50.0 °F 48.2 °F 94% 30.24 in 5.0 mi Calm Calm - N/A   Mostly Cloudy
6:55 AM 50.0 °F 50.0 °F 100% 30.24 in 7.0 mi Calm Calm - N/A   Mostly Cloudy
7:15 AM 51.8 °F 50.0 °F 94% 30.25 in 10.0 mi Calm Calm - N/A   Mostly Cloudy
7:35 AM 51.8 °F 51.8 °F 100% 30.25 in 10.0 mi Calm Calm - N/A   Scattered Clouds
7:55 AM 53.6 °F 51.8 °F 94% 30.26 in 10.0 mi Calm Calm - N/A   Clear
8:15 AM 55.4 °F 51.8 °F 88% 30.26 in 10.0 mi Calm Calm - N/A   Scattered Clouds
8:55 AM 55.4 °F 48.2 °F 77% 30.27 in 10.0 mi West 3.5 mph - N/A   Overcast
9:15 AM 59.0 °F 46.4 °F 63% 30.27 in 10.0 mi WNW 3.5 mph - N/A   Scattered Clouds
9:35 AM 60.8 °F 44.6 °F 55% 30.27 in 10.0 mi West 6.9 mph - N/A   Clear
9:55 AM 60.8 °F 44.6 °F 55% 30.27 in 10.0 mi West 6.9 mph - N/A   Clear
10:15 AM 60.8 °F 44.6 °F 55% 30.28 in 10.0 mi West 6.9 mph - N/A   Clear
10:35 AM 60.8 °F 48.2 °F 63% 30.28 in 10.0 mi West 6.9 mph - N/A   Clear
10:55 AM 62.6 °F 48.2 °F 59% 30.28 in 10.0 mi West 6.9 mph - N/A   Scattered Clouds
11:15 AM 62.6 °F 48.2 °F 59% 30.28 in 10.0 mi SW 5.8 mph - N/A   Scattered Clouds
11:35 AM 62.6 °F 46.4 °F 55% 30.29 in 10.0 mi WSW 10.4 mph - N/A   Mostly Cloudy
11:55 AM 64.4 °F 46.4 °F 52% 30.28 in 10.0 mi South 4.6 mph - N/A   Scattered Clouds
12:15 PM 64.4 °F 46.4 °F 52% 30.28 in 10.0 mi WSW 6.9 mph 17.3 mph N/A   Clear
12:35 PM 64.4 °F 44.6 °F 49% 30.28 in 10.0 mi West 10.4 mph - N/A   Clear
12:55 PM 64.4 °F 44.6 °F 49% 30.28 in 10.0 mi SSW 6.9 mph - N/A   Clear
1:15 PM 64.4 °F 42.8 °F 45% 30.27 in 10.0 mi SSW 5.8 mph - N/A   Clear
1:35 PM 64.4 °F 42.8 °F 45% 30.27 in 10.0 mi West 9.2 mph - N/A   Clear
1:55 PM 66.2 °F 41.0 °F 40% 30.27 in 10.0 mi WSW 9.2 mph 18.4 mph N/A   Clear
2:15 PM 66.2 °F 42.8 °F 43% 30.27 in 10.0 mi WSW 8.1 mph - N/A   Clear
2:35 PM 66.2 °F 41.0 °F 40% 30.27 in 10.0 mi West 12.7 mph - N/A   Clear
2:55 PM 68.0 °F 41.0 °F 37% 30.26 in 10.0 mi West 12.7 mph - N/A   Clear
3:15 PM 68.0 °F 39.2 °F 35% 30.26 in 10.0 mi West 15.0 mph - N/A   Clear
3:35 PM 68.0 °F 37.4 °F 33% 30.25 in 10.0 mi West 12.7 mph - N/A   Clear
3:55 PM 66.2 °F 37.4 °F 35% 30.25 in 10.0 mi West 12.7 mph - N/A   Clear
4:15 PM 66.2 °F 37.4 °F 35% 30.25 in 10.0 mi West 12.7 mph 19.6 mph N/A   Clear
4:35 PM 66.2 °F 37.4 °F 35% 30.25 in 10.0 mi West 13.8 mph 17.3 mph N/A   Clear
4:55 PM 66.2 °F 37.4 °F 35% 30.25 in 10.0 mi WSW 6.9 mph - N/A   Clear
5:15 PM 64.4 °F 35.6 °F 34% 30.25 in 10.0 mi West 11.5 mph 17.3 mph N/A   Clear
5:35 PM 64.4 °F 42.8 °F 45% 30.25 in 10.0 mi West 12.7 mph 17.3 mph N/A   Clear
6:15 PM 62.6 °F 37.4 °F 39% 30.26 in 10.0 mi WSW 9.2 mph - N/A   Clear
6:55 PM 62.6 °F 32.0 °F 32% 30.25 in 10.0 mi West 10.4 mph - N/A   Clear
7:15 PM 60.8 °F 33.8 °F 36% 30.25 in 10.0 mi WSW 6.9 mph - N/A   Clear
7:35 PM 59.0 °F 37.4 °F 45% 30.25 in 10.0 mi West 8.1 mph - N/A   Clear
7:55 PM 57.2 °F 42.8 °F 59% 30.25 in 10.0 mi WSW 4.6 mph - N/A   Clear
8:15 PM 57.2 °F 42.8 °F 59% 30.26 in 10.0 mi Calm Calm - N/A   Clear
8:35 PM 55.4 °F 42.8 °F 63% 30.26 in 10.0 mi SW 3.5 mph - N/A   Clear
8:55 PM 53.6 °F 42.8 °F 67% 30.27 in 10.0 mi Calm Calm - N/A   Clear
9:15 PM 53.6 °F 42.8 °F 67% 30.27 in 10.0 mi Calm Calm - N/A   Clear
9:35 PM 51.8 °F 42.8 °F 71% 30.28 in 10.0 mi Calm Calm - N/A   Clear
10:15 PM 51.8 °F 42.8 °F 71% 30.28 in 10.0 mi Calm Calm - N/A   Clear
10:35 PM 50.0 °F 42.8 °F 76% 30.28 in 10.0 mi Calm Calm - N/A   Clear
10:55 PM 50.0 °F 42.8 °F 76% 30.28 in 10.0 mi Calm Calm - N/A   Clear
11:15 PM 50.0 °F 41.0 °F 71% 30.29 in 10.0 mi Calm Calm - N/A   Clear
11:35 PM 50.0 °F 42.8 °F 76% 30.29 in 10.0 mi Calm Calm - N/A   Clear
11:55 PM 48.2 °F 42.8 °F 82% 30.29 in 10.0 mi Calm Calm - N/A   Clear